Terminal Aerodrome Forecast
Issued by NWS Charleston, SC

Home | Current Version | Previous Version | Text Only | Print | Product List | Glossary On
Versions: 1 2 3 4 5 6 7 8 9 10 11 12 13 14 15 16 17 18 19
000
FTUS42 KCHS 281130
TAFSAV
TAF
KSAV 281130Z 2812/2912 10006KT P6SM SKC
     FM281600 11011KT P6SM FEW035
     FM290030 VRB03KT P6SM FEW030=

USA.gov is the U.S. government's official web portal to all federal, state and local government web resources and services.